Regional Weather Roundup
Issued by NWS Newport/Morehead, NC

Current Version | Previous Version | Text Only | Print | Product List | Glossary On
Versions: 1 2 3 4 5 6 7 8 9 10 11 12 13 14 15 16 17 18 19 20 21 22 23 24 25 26 27 28 29 30 31 32 33 34 35 36 37 38 39 40 41 42 43 44 45 46 47 48 49 50
000
ASUS42 KMHX 251910
RWRMHX
WEATHER ROUNDUP FOR EASTERN NORTH CAROLINA
NATIONAL WEATHER SERVICE NEWPORT/MOREHEAD CITY NC
200 PM EST SUN JAN 25 2015

NOTE: "FAIR" INDICATES FEW OR NO CLOUDS BELOW 12,000 FEET
WITH NO SIGNIFICANT WEATHER AND/OR OBSTRUCTIONS TO VISIBILITY

NCZ015>017-031-032-045>047-102-103-252000-
NORTH COAST

CITY           SKY/WX    TMP DP  RH WIND       PRES   REMARKS
EDENTON        SUNNY     51  31  47 S6        29.90F
ELIZABETH CITY SUNNY     50  32  50 S6        29.90F
KITTY HAWK     CLEAR     49  32  53 CALM      29.89F
MANTEO         SUNNY     46  34  61 S10       29.91F

$$

NCZ045>047-081-094-103-104-252000-
CENTRAL COAST

CITY           SKY/WX    TMP DP  RH WIND       PRES   REMARKS
FRISCO         SUNNY     48  32  53 VRB5      29.93F
SWANQUARTER    NOT AVBL

$$

NCZ095-097-098-100-101-252000-
SOUTHERN COAST

CITY           SKY/WX    TMP DP  RH WIND       PRES   REMARKS
BEAUFORT       SUNNY     49  37  63 S9        29.93F
CEDAR ISLAND   NOT AVBL
JACKSONVILLE   SUNNY     54  31  41 CALM      29.91F
PINEY ISLAND     N/A    N/A N/A N/A MISG      29.93F
WILMINGTON     SUNNY     55  34  45 CALM      29.92F


$$

NCZ011>013-027>030-043-044-078>080-089-090>093-098-252000-
COASTAL PLAIN

CITY           SKY/WX    TMP DP  RH WIND       PRES   REMARKS
AHOSKIE        SUNNY     50  31  48 CALM      29.89F
CLINTON        SUNNY     56  35  46 SW3       29.90F
ELIZABETHTOWN  SUNNY     55  34  45 CALM      29.91F
GOLDSBORO      SUNNY     54  39  57 SW5       29.88F
GREENVILLE     SUNNY     54  32  43 SW6       29.93F
HAVELOCK       SUNNY     54  30  40 W7        29.93F
KENANSVILLE    SUNNY     53  31  42 CALM      29.92F
KINSTON        SUNNY     54  32  43 CALM      29.91F
NEW BERN       SUNNY     55  32  41 SW6       29.93F
RICHLANDS      SUNNY     52  30  43 CALM      29.92F
ROCKY MOUNT    SUNNY     53  34  48 SW8       29.90F
WASHINGTON     SUNNY     51  31  46 W6        29.91F
WHITEVILLE     SUNNY     54  34  45 SW6       29.91F

$$

AMZ130-135-150-152-154-156-158-170-250-252-270-ANZ085-086-088-633-658-670-252000-
MARINE OBSERVATIONS

STATION/POSITION TIME  TEMP    WIND        PRES    WAVE   SWELL
                       AIR SEA DIR/SP/G            HT/PER HT/PER
                 (UTC) (F)     (DEG/KT/KT) (MB)    (FT/S) (FT/S)
CHESAPEAKE LIGHT 1800   45     210/  8/  9 1013.2
64 E VA BEACH    1900   47 53  250/  4/  6 1012.0    4/10   5/10
DUCK             1900   48 43  130/  7/  7 1011.9
2 E DUCK         1900      45                N/A     2/ 8   2/11
10 NE DUCK       1900      45                N/A     3/11   2/11
OREGON INLET     1900   47 46  110/  5/  6 1012.9
13E OREGON INLT  1900      46                N/A     4/11   2/11
HATTERAS CG      1900   47 53  320/  3/  5 1013.9
DIAMOND BUOY     1900   48 69   20/  2/  6 1013.6    4/10   5/10
17 S OCRACOKE    NOT AVBL
CAPE LOOKOUT     1800   50     270/  3/  4 1013.9
BEAUFORT LAB     1900   48 50  200/  9/ 11 1012.7
27 SE WRIGHTSVLE NOT AVBL
5 SE WRIGHTSVLE  1800   48 51  140/  4/  6 1014.1
225 S CAPE HAT   1833   65 72  270/ 10/ 14 1014.1    8/ 8   7/ 8
41 SE CHARLESTON 1900   54 70  220/  4/ 10 1014.0    3/ 6   2/ 6

$$


USA.gov is the U.S. government's official web portal to all federal, state and local government web resources and services.